Regional Weather Roundup
Issued by NWS

Home | Current Version | Previous Version | Graphics & Text | Print | Product List | Glossary On
Versions: 1 2 3 4 5 6 7 8 9 10 11 12 13 14 15 16 17 18 19 20 21 22 23 24 25 26 27 28 29 30 31 32 33 34 35 36 37 38 39 40 41 42 43 44 45 46 47 48 49 50
110
ASUS43 KFSD 232010
RWRSD

WEATHER ROUNDUP FOR SOUTH DAKOTA
NATIONAL WEATHER SERVICE SIOUX FALLS SD
200 PM CST THU NOV 23 2017

NOTE: "FAIR" INDICATES FEW OR NO CLOUDS BELOW 12,000 FEET WITH NO
SIGNIFICANT WEATHER AND/OR OBSTRUCTIONS TO VISIBILITY.


SDZ001>005-009-010-012>017-232100-
NORTHWEST AND NORTH CENTRAL SOUTH DAKOTA

CITY           SKY/WX    TMP DP  RH WIND       PRES   REMARKS
FAITH            N/A     74  38  27 W16       29.74F
MOBRIDGE       CLOUDY    64  42  44 SE12      29.67F
$$

SDZ012>016-024>037-041>051-057-063-072>074-232100-
SOUTHWEST AND SOUTH CENTRAL SOUTH DAKOTA

CITY           SKY/WX    TMP DP  RH WIND       PRES   REMARKS
RAPID CTY ARPT SUNNY     75  37  25 S12       29.80F
PIERRE         CLOUDY    66  42  41 SW7       29.74F
CUSTER         CLOUDY    62  32  32 W10G21    29.93F
ELLSWORTH AFB  SUNNY     75  36  24 S10       29.79F
PHILIP         SUNNY     74  40  29 SW15      29.76F
PINE RIDGE     SUNNY     70  39  32 W9        29.88F
SPEARFISH      FAIR      72  32  23 SW16G23   29.82F
WINNER         FAIR      74  42  31 SW13      29.79F
$$

SDZ004>011-016>023-039-040-232100-
NORTHEAST SOUTH DAKOTA

CITY           SKY/WX    TMP DP  RH WIND       PRES   REMARKS
ABERDEEN       CLOUDY    57  39  51 S15       29.71F
WATERTOWN      CLOUDY    55  37  50 S12       29.75F
BROOKINGS      CLOUDY    54  35  48 S14       29.78F
SISSETON         N/A     60  39  45 SW17      29.67F
$$

SDZ017-020-022-023-036>040-048>070-232100-
SOUTHEAST SOUTH DAKOTA

CITY           SKY/WX    TMP DP  RH WIND       PRES   REMARKS
SIOUX FALLS    CLOUDY    57  37  47 SW8       29.82F
HURON          CLOUDY    58  39  49 S13       29.76F
CHAMBERLAIN    SUNNY     71  45  39 S8        29.76F
MITCHELL       SUNNY     63  41  44 S8        29.79F
YANKTON        CLOUDY    67  43  41 S8        29.82F
$$

ABBREVIATIONS USED IN REMARKS
   TC - TEMPERATURE IN CELSIUS
  WCI - WIND CHILL INDEX
   HX - HEAT INDEX
  VSB - VISIBILITY





USA.gov is the U.S. government's official web portal to all federal, state and local government web resources and services.